Location: �clusier
(49.9361°N, 2.7869°E)
Time: 05:26:46
(UTC+00:00)

Cosmos 2016 Rocket - Pass Details

Date: 23 October 2021
Orbit: 947 x 1000 km, 83.0° (Epoch: 05 December)

Event Time Altitude Azimuth Distance (km) Brightness Sun altitude
Exits shadow 18:59:47 18° 37° (NE) 2,156 5.5 -22.8°
Drops below altitude 10° 19:01:34 10° 26° (NNE) 2,696 6.1 -23.1°
Sets 19:04:18 0° 17° (NNE) 3,641 6.9 -23.5°
